CZ-2C DEB

Satellite information

Favourite Embed

Satellite Type and Status

DEBRISIN ORBIT

Key statistics

Satellite CZ-2C DEB at a glance.

Uptime

5115

Days in orbit

Revolutions

≈ 15.0

Per day

Orbit

SSO

Sun Synchronous Orbit

Inclination

98.2

Latest

Satellite identification and parameters

Extended collection of information and parameters for CZ-2C DEB.

Object identification

Identified? True

Debris? True

Object name: CZ-2C DEB

International designator: 2011-030E

Object number (NORAD): 37734

Object ID (CCSDS): 37734

Country: PEOPLES REPUBLIC OF CHINA (PRC)

Current information (Y/N): Y

RCS size: SMALL

Orbital parameters

Period: 96.006 minutes

Inclination: 98.1634 deg

SMA: 6945.329 km

Apoapsis: 597.634 km

Periapsis: 536.754 km

RAAN: 144.5658 deg

Eccentricy: 0.0043828

Argument of periapsis: 62.9684 deg

Mean anomaly: 52.9923 deg

Mean motion: 14.99904264 rev/day

Mean motion (dot): 0.00020972 rev/day2

B* drag term: 0.0016582 1/REarth

Two-line elements (TLE)

Creation date: July 5, 2025, 5:45 p.m.

Reference frame: TEME

Reference center: EARTH

Epoch: July 5, 2025, 10:51 a.m. UTC

TLE line 0: 0 CZ-2C DEB

TLE line 1: 1 37734U 11030E 25186.45218889 .00020972 00000-0 16582-2 0 9990

TLE line 2: 2 37734 98.1634 144.5658 0043828 62.9684 52.9923 14.99904264744946

Live tracking on map

Real-time ground track for satellite CZ-2C DEB.

In-orbit conjunctions

A list of the most updated potential collisions computed for object CZ-2C DEB.

Target Orbit TCA Probability of collision Miss distance Type
TIROS 1 LEO 2024-06-18 16:05:16 0.0006676289 422.0 (m) PAYLOAD

Associated space launch

CZ-2C DEB was lifted into orbit during the mission ‘Long March 2C | Shijian 10-03’, on board a Long March 2 space rocket.

The launch took place on July 6, 2011, 4:28 a.m. from Launch Area 4 (SLS-2 / 603).

For more information about the launch, click the button.

Launch to space Long March 2C | Shijian 10-03
Long March 2C | Shijian 10-03

Agency: N/A

Status: Launch Successful

Launch date: July 6, 2011, 4:28 a.m. UTC

Rocket: Long March 2

Launch pad: Launch Area 4 (SLS-2 / 603)

Location: Jiuquan Satellite Launch Center, People's Republic of China

...

Latest news about this satellite

There are no fresh news available about this satellite. Check back as we update our databases every day.


Newsletter sign-up

Weekly statistics, charts and insights to help you stay on top of the space industry.